When you browse on this site, cookies collect data to enhance your experience and personalize the content and advertising you see.
Visit our Privacy Policy to learn more. By continuing to use the site, you agree to this use of cookies and data.

Stündliche Wetter Canberra

Heute, 9 Juli, Donnerstag

Zeit Temperatur Niederschläge Wind Luftdruck Luftfeuchtigkeit
00:00 +4°C° 0 mm 0 m/S 717 mmHg 93%
01:00 +4°C° 0 mm 0 m/S 716 mmHg 93%
02:00 +4°C° 0 mm 0 m/S 716 mmHg 93%
03:00 +4°C° 0 mm 0 m/S 716 mmHg 93%
04:00 +4°C° 0 mm 0 m/S 716 mmHg 93%
05:00 +4°C° 0 mm 0 m/S 717 mmHg 93%
06:00 +3°C° 0 mm 0 m/S 717 mmHg 94%
07:00 +3°C° 0 mm 0 m/S 717 mmHg 94%
08:00 +5°C° 0 mm 0 m/S 717 mmHg 87%
09:00 +8°C° 0 mm 0 m/S 717 mmHg 80%
10:00 +10°C° 0 mm 0 m/S 718 mmHg 71%
11:00 +12°C° 0 mm 1 m/S 717 mmHg 66%
12:00 +13°C° 0 mm 1 m/S 717 mmHg 60%
13:00 +14°C° 0 mm 2 m/S 716 mmHg 55%
14:00 +14°C° 0 mm 2 m/S 716 mmHg 58%
15:00 +13°C° 0 mm 2 m/S 716 mmHg 62%
16:00 +12°C° 0 mm 2 m/S 716 mmHg 66%
17:00 +11°C° 0 mm 1 m/S 716 mmHg 72%
18:00 +9°C° 0 mm 1 m/S 716 mmHg 79%
19:00 +7°C° 0 mm 1 m/S 716 mmHg 86%
20:00 +6°C° 0 mm 0 m/S 716 mmHg 88%
21:00 +6°C° 0 mm 0 m/S 716 mmHg 89%
22:00 +5°C° 0 mm 0 m/S 716 mmHg 90%
23:00 +5°C° 0 mm 0 m/S 716 mmHg 90%

Morgen, 10 Juli, Freitag

Zeit Temperatur Niederschläge Wind Luftdruck Luftfeuchtigkeit
00:00 +5°C° 0 mm 0 m/S 716 mmHg 91%
01:00 +5°C° 0 mm 0 m/S 716 mmHg 91%
02:00 +5°C° 0 mm 0 m/S 715 mmHg 91%
03:00 +5°C° 0 mm 0 m/S 715 mmHg 90%
04:00 +5°C° 0 mm 0 m/S 715 mmHg 90%
05:00 +5°C° 0 mm 0 m/S 715 mmHg 90%
06:00 +4°C° 0 mm 0 m/S 715 mmHg 91%
07:00 +4°C° 0 mm 0 m/S 715 mmHg 91%
08:00 +6°C° 0 mm 0 m/S 715 mmHg 83%
09:00 +8°C° 0 mm 0 m/S 715 mmHg 76%
10:00 +10°C° 0 mm 0 m/S 715 mmHg 68%
11:00 +12°C° 0 mm 1 m/S 715 mmHg 66%
12:00 +13°C° 0 mm 2 m/S 714 mmHg 63%
13:00 +13°C° 0 mm 3 m/S 714 mmHg 60%
14:00 +14°C° 0 mm 2 m/S 713 mmHg 63%
15:00 +13°C° 0 mm 2 m/S 713 mmHg 65%
16:00 +13°C° 0 mm 1 m/S 712 mmHg 68%
17:00 +11°C° 0 mm 1 m/S 712 mmHg 74%
18:00 +9°C° 0 mm 0 m/S 713 mmHg 79%
19:00 +7°C° 0 mm 0 m/S 713 mmHg 85%
20:00 +7°C° 0 mm 0 m/S 713 mmHg 85%
21:00 +7°C° 0 mm 0 m/S 712 mmHg 85%
22:00 +7°C° 0 mm 0 m/S 712 mmHg 84%
23:00 +7°C° 0 mm 0 m/S 712 mmHg 85%

übermorgen, 11 Juli, Samstag

Zeit Temperatur Niederschläge Wind Luftdruck Luftfeuchtigkeit
00:00 +7°C° 0 mm 0 m/S 711 mmHg 85%
01:00 +7°C° 0 mm 0 m/S 711 mmHg 85%
02:00 +7°C° 1 mm 0 m/S 710 mmHg 89%
03:00 +7°C° 1 mm 0 m/S 710 mmHg 93%
04:00 +8°C° 1 mm 1 m/S 709 mmHg 96%
05:00 +9°C° 0.5 mm 1 m/S 709 mmHg 97%
06:00 +9°C° 0.5 mm 1 m/S 709 mmHg 97%
07:00 +9°C° 0.5 mm 1 m/S 709 mmHg 98%
08:00 +8°C° 0.1 mm 2 m/S 709 mmHg 96%
09:00 +9°C° 0.1 mm 3 m/S 709 mmHg 95%
10:00 +9°C° 0.1 mm 3 m/S 709 mmHg 94%
11:00 +10°C° 0 mm 4 m/S 709 mmHg 89%
12:00 +11°C° 0 mm 4 m/S 709 mmHg 84%
13:00 +12°C° 0 mm 4 m/S 708 mmHg 79%
14:00 +12°C° 0 mm 3 m/S 708 mmHg 78%
15:00 +12°C° 0 mm 3 m/S 708 mmHg 77%
16:00 +12°C° 0 mm 3 m/S 707 mmHg 76%
17:00 +10°C° 0 mm 2 m/S 708 mmHg 83%
18:00 +8°C° 0 mm 2 m/S 708 mmHg 89%
19:00 +8°C° 0 mm 1 m/S 708 mmHg 96%
20:00 +7°C° 0 mm 1 m/S 708 mmHg 96%
21:00 +7°C° 0 mm 1 m/S 708 mmHg 96%
22:00 +5°C° 0 mm 0 m/S 708 mmHg 96%
23:00 +5°C° 0 mm 0 m/S 708 mmHg 96%

12 Juli, Sonntag

Zeit Temperatur Niederschläge Wind Luftdruck Luftfeuchtigkeit
00:00 +5°C° 0 mm 0 m/S 708 mmHg 96%
01:00 +5°C° 0 mm 0 m/S 708 mmHg 96%
02:00 +5°C° 0 mm 0 m/S 708 mmHg 95%
03:00 +5°C° 0 mm 0 m/S 708 mmHg 95%
04:00 +5°C° 0 mm 0 m/S 708 mmHg 95%
05:00 +5°C° 0 mm 0 m/S 708 mmHg 94%
06:00 +6°C° 0 mm 1 m/S 708 mmHg 94%
07:00 +6°C° 0 mm 1 m/S 708 mmHg 93%
08:00 +8°C° 0 mm 1 m/S 709 mmHg 89%
09:00 +8°C° 0 mm 2 m/S 709 mmHg 85%
10:00 +9°C° 0 mm 3 m/S 709 mmHg 81%
11:00 +10°C° 0.4 mm 3 m/S 709 mmHg 81%
12:00 +10°C° 0.4 mm 3 m/S 708 mmHg 81%
13:00 +11°C° 0.4 mm 3 m/S 708 mmHg 81%
14:00 +10°C° 1.5 mm 3 m/S 707 mmHg 86%
15:00 +9°C° 1.5 mm 3 m/S 707 mmHg 90%
16:00 +8°C° 1.5 mm 2 m/S 707 mmHg 95%
17:00 +7°C° 3.7 mm 2 m/S 707 mmHg 95%
18:00 +6°C° 3.7 mm 2 m/S 707 mmHg 95%
19:00 +6°C° 3.7 mm 2 m/S 707 mmHg 96%
20:00 +6°C° 0.9 mm 2 m/S 707 mmHg 96%
21:00 +5°C° 0.9 mm 2 m/S 707 mmHg 96%
22:00 +5°C° 0.9 mm 2 m/S 707 mmHg 95%
23:00 +5°C° 0.2 mm 2 m/S 707 mmHg 96%

13 Juli, Montag

Zeit Temperatur Niederschläge Wind Luftdruck Luftfeuchtigkeit
00:00 +5°C° 0.2 mm 1 m/S 707 mmHg 96%
01:00 +5°C° 0.2 mm 1 m/S 707 mmHg 96%
02:00 +5°C° 0 mm 1 m/S 707 mmHg 96%
03:00 +5°C° 0 mm 1 m/S 707 mmHg 96%
04:00 +5°C° 0 mm 1 m/S 707 mmHg 96%
05:00 +4°C° 0 mm 2 m/S 707 mmHg 96%
06:00 +4°C° 0 mm 2 m/S 708 mmHg 95%
07:00 +3°C° 0 mm 2 m/S 708 mmHg 95%
08:00 +5°C° 0 mm 2 m/S 708 mmHg 92%
09:00 +5°C° 0 mm 3 m/S 709 mmHg 88%
10:00 +8°C° 0 mm 3 m/S 709 mmHg 85%
11:00 +7°C° 0.1 mm 4 m/S 709 mmHg 82%
12:00 +8°C° 0.1 mm 4 m/S 709 mmHg 79%
13:00 +9°C° 0.1 mm 5 m/S 709 mmHg 76%
14:00 +8°C° 3.2 mm 4 m/S 708 mmHg 82%
15:00 +7°C° 3.2 mm 3 m/S 708 mmHg 89%
16:00 +6°C° 3.2 mm 2 m/S 708 mmHg 95%
17:00 +7°C° 1.3 mm 2 m/S 708 mmHg 95%
18:00 +7°C° 1.3 mm 2 m/S 709 mmHg 96%
19:00 +7°C° 1.3 mm 2 m/S 709 mmHg 96%
20:00 +7°C° 0.3 mm 3 m/S 709 mmHg 95%
21:00 +7°C° 0.3 mm 3 m/S 709 mmHg 93%
22:00 +6°C° 0.3 mm 4 m/S 709 mmHg 92%
23:00 +6°C° 0 mm 4 m/S 710 mmHg 91%

14 Juli, Dienstag

Zeit Temperatur Niederschläge Wind Luftdruck Luftfeuchtigkeit
00:00 +7°C° 0 mm 3 m/S 710 mmHg 91%
01:00 +7°C° 0 mm 3 m/S 710 mmHg 90%
02:00 +6°C° 0 mm 4 m/S 710 mmHg 89%
03:00 +5°C° 0 mm 4 m/S 710 mmHg 88%
04:00 +5°C° 0 mm 4 m/S 710 mmHg 87%
05:00 +5°C° 0 mm 4 m/S 710 mmHg 87%
06:00 +4°C° 0 mm 3 m/S 710 mmHg 87%
07:00 +4°C° 0 mm 3 m/S 711 mmHg 86%
08:00 +5°C° 0 mm 5 m/S 711 mmHg 82%
09:00 +5°C° 0 mm 6 m/S 711 mmHg 77%
10:00 +8°C° 0 mm 7 m/S 712 mmHg 72%
11:00 +8°C° 0 mm 7 m/S 712 mmHg 69%
12:00 +9°C° 0 mm 7 m/S 711 mmHg 66%
13:00 +9°C° 0 mm 7 m/S 711 mmHg 63%
14:00 +9°C° 0 mm 7 m/S 711 mmHg 64%
15:00 +8°C° 0 mm 7 m/S 711 mmHg 65%
16:00 +8°C° 0 mm 7 m/S 711 mmHg 67%
17:00 +5°C° 0 mm 6 m/S 712 mmHg 71%
18:00 +5°C° 0 mm 5 m/S 712 mmHg 75%
19:00 +4°C° 0 mm 4 m/S 712 mmHg 79%
20:00 +4°C° 0 mm 4 m/S 712 mmHg 79%
21:00 +4°C° 0 mm 4 m/S 712 mmHg 80%
22:00 +4°C° 0 mm 4 m/S 712 mmHg 81%
23:00 +4°C° 0 mm 4 m/S 712 mmHg 81%
Mehr zeigen